Retour au catalogue

STARLINK-31530

ActifCommunicationsVLEO
NORAD 59322·PAYLOAD·🇺🇸 United States

Lancé Mar 25, 2024 depuis Cape Canaveral Space Force Station

Loading…

Prochains Passages (prochaines 24 heures)

TLE

FraisSource: CelesTrak SupGP

Époque: Sep 14, 2026, 21:31 UTC

1 59322C 24057C   26257.89701389  .00323920  00000+0  77608-3 0  2572
2 59322  42.9786 131.0336 0026786 242.3121  95.8304 15.94686149    13

Suivez STARLINK-31530 en temps réel avec AllMySat

Download on the App Store